Total_Precipitation_Accumulation
0.20 0.30 0.75 1.00 1.02 0.93 0.86 0.76 0.69 0.67 0.63 0.61 0.60 0.60 0.55 0.53 0.50 0.49 0.53 0.57 0.64 0.75 0.88 0.92 0.95 1.01 0.98 0.81 0.63 0.48 0.44 0.45 0.38 0.35 0.33 0.37 0.43 0.47 0.41 0.42 0.43 0.50 0.68
0.22 0.33 0.67 0.99 1.12 1.07 0.96 0.86 0.73 0.66 0.64 0.66 0.66 0.69 0.66 0.59 0.58 0.59 0.64 0.70 0.79 0.91 0.98 0.97 0.94 0.97 0.90 0.76 0.59 0.42 0.32 0.27 0.18 0.13 0.11 0.15 0.30 0.42 0.40 0.38 0.41 0.56 0.63
0.24 0.35 0.61 0.95 1.14 1.15 1.07 0.96 0.87 0.80 0.74 0.77 0.80 0.82 0.80 0.75 0.73 0.74 0.78 0.80 0.89 0.99 0.96 0.96 0.90 0.86 0.78 0.68 0.54 0.42 0.30 0.23 0.16 0.11 0.12 0.19 0.35 0.49 0.44 0.41 0.48 0.58 0.59
0.28 0.39 0.61 0.94 1.18 1.24 1.18 1.09 1.03 1.02 0.95 0.91 0.94 0.96 0.95 0.94 0.89 0.86 0.89 0.90 0.91 0.94 0.87 0.82 0.71 0.64 0.54 0.50 0.46 0.39 0.31 0.24 0.16 0.13 0.19 0.25 0.35 0.64 0.64 0.59 0.62 0.61 0.59
0.43 0.54 0.79 1.06 1.26 1.35 1.27 1.25 1.22 1.21 1.18 1.13 1.07 1.06 1.09 1.06 1.02 0.95 0.92 0.93 0.88 0.86 0.77 0.70 0.58 0.46 0.41 0.37 0.37 0.36 0.27 0.21 0.16 0.17 0.23 0.30 0.42 0.82 0.76 0.71 0.67 0.61 0.60
0.59 0.71 0.98 1.21 1.37 1.43 1.34 1.32 1.35 1.36 1.38 1.33 1.20 1.14 1.17 1.17 1.08 0.96 0.90 0.84 0.76 0.72 0.70 0.60 0.51 0.43 0.37 0.36 0.34 0.33 0.28 0.18 0.15 0.18 0.24 0.31 0.44 0.78 0.70 0.64 0.62 0.62 0.63
0.82 0.94 1.17 1.45 1.64 1.67 1.58 1.52 1.49 1.48 1.48 1.50 1.40 1.28 1.29 1.32 1.27 1.08 0.91 0.79 0.69 0.65 0.61 0.56 0.50 0.45 0.39 0.36 0.37 0.30 0.23 0.17 0.16 0.20 0.23 0.33 0.52 0.79 0.76 0.69 0.66 0.64 0.70
1.04 1.18 1.41 1.70 1.82 1.92 1.83 1.75 1.72 1.66 1.57 1.55 1.57 1.49 1.43 1.45 1.43 1.21 0.94 0.81 0.75 0.71 0.64 0.59 0.56 0.49 0.43 0.37 0.34 0.28 0.21 0.14 0.15 0.18 0.21 0.28 0.50 0.76 0.78 0.72 0.67 0.63 0.65
1.35 1.51 1.66 1.85 1.97 2.16 2.02 1.85 1.85 1.82 1.70 1.64 1.64 1.58 1.48 1.46 1.41 1.23 1.00 0.89 0.85 0.80 0.71 0.65 0.62 0.55 0.48 0.41 0.35 0.26 0.20 0.14 0.12 0.16 0.17 0.25 0.45 0.71 0.76 0.76 0.74 0.69 0.63
1.68 1.85 1.93 2.06 2.13 2.31 2.28 2.02 1.83 1.73 1.68 1.70 1.64 1.44 1.23 1.24 1.30 1.24 0.97 0.89 0.89 0.82 0.75 0.70 0.64 0.59 0.50 0.40 0.33 0.26 0.22 0.20 0.16 0.15 0.18 0.25 0.44 0.69 0.73 0.79 0.83 0.79 0.72
2.08 2.14 2.21 2.22 2.20 2.30 2.40 2.22 2.10 1.93 1.83 1.75 1.66 1.41 1.27 1.31 1.28 1.18 0.95 0.80 0.85 0.83 0.80 0.79 0.76 0.65 0.52 0.40 0.32 0.23 0.21 0.23 0.21 0.19 0.21 0.31 0.49 0.68 0.73 0.76 0.77 0.77 0.69
2.19 2.27 2.38 2.34 2.31 2.39 2.43 2.38 2.39 2.22 2.05 1.89 1.69 1.54 1.44 1.35 1.35 1.21 1.12 0.91 0.90 0.89 0.87 0.86 0.80 0.75 0.60 0.45 0.36 0.29 0.25 0.22 0.23 0.22 0.25 0.38 0.59 0.71 0.71 0.67 0.65 0.68 0.69
2.36 2.45 2.55 2.49 2.52 2.52 2.49 2.38 2.37 2.28 2.25 2.13 1.95 1.71 1.61 1.54 1.46 1.45 1.28 1.13 1.06 0.94 0.94 0.88 0.83 0.76 0.63 0.52 0.46 0.36 0.30 0.29 0.27 0.24 0.28 0.39 0.61 0.73 0.75 0.71 0.67 0.66 0.74
2.59 2.73 2.75 2.71 2.76 2.72 2.63 2.44 2.26 2.13 2.10 2.12 1.99 1.94 1.82 1.70 1.56 1.44 1.27 1.12 1.07 0.98 0.93 0.86 0.77 0.70 0.62 0.57 0.55 0.48 0.38 0.32 0.29 0.29 0.30 0.34 0.48 0.68 0.78 0.78 0.77 0.76 0.81
2.85 2.92 3.01 2.96 2.88 2.79 2.77 2.67 2.33 2.07 1.89 1.94 1.98 1.99 1.93 1.73 1.55 1.49 1.34 1.26 1.15 1.04 1.01 0.97 0.85 0.75 0.69 0.66 0.59 0.52 0.47 0.40 0.35 0.37 0.34 0.32 0.35 0.55 0.78 0.82 0.84 0.89 0.95
3.03 3.18 3.31 3.22 3.09 2.84 2.69 2.69 2.50 2.20 1.99 1.92 1.90 1.92 2.04 1.93 1.74 1.68 1.48 1.41 1.32 1.22 1.15 1.12 1.05 1.00 0.90 0.82 0.70 0.60 0.57 0.51 0.46 0.48 0.47 0.41 0.37 0.42 0.64 0.87 1.05 1.11 1.17
3.13 3.37 3.48 3.48 3.35 3.04 2.78 2.75 2.63 2.43 2.24 2.08 1.80 1.78 1.93 2.04 2.01 1.96 1.70 1.55 1.45 1.42 1.41 1.37 1.27 1.19 1.12 1.00 0.87 0.78 0.68 0.59 0.52 0.50 0.49 0.46 0.42 0.40 0.47 0.73 0.99 1.10 1.20
3.19 3.41 3.52 3.55 3.51 3.31 3.00 2.89 2.81 2.62 2.45 2.31 2.07 1.90 1.85 1.97 2.12 2.18 1.88 1.64 1.52 1.52 1.49 1.42 1.35 1.23 1.09 1.04 0.99 0.91 0.80 0.70 0.61 0.54 0.50 0.46 0.43 0.39 0.38 0.47 0.68 0.90 1.05
3.02 3.30 3.60 3.60 3.52 3.45 3.32 3.21 3.12 2.99 2.76 2.55 2.27 2.06 2.03 2.05 2.18 2.33 2.03 1.75 1.67 1.64 1.54 1.52 1.44 1.39 1.22 1.09 1.06 1.03 0.93 0.81 0.71 0.63 0.55 0.48 0.43 0.39 0.36 0.36 0.41 0.54 0.74
2.83 3.16 3.40 3.71 3.69 3.75 3.76 3.63 3.51 3.41 3.17 2.88 2.50 2.21 2.15 2.12 2.18 2.40 2.26 2.00 1.92 1.84 1.71 1.58 1.49 1.50 1.48 1.38 1.25 1.16 1.08 0.95 0.85 0.73 0.63 0.55 0.47 0.42 0.38 0.37 0.37 0.40 0.49
2.59 2.92 3.09 3.35 3.62 3.74 3.70 3.47 3.31 3.20 3.27 3.15 2.81 2.52 2.47 2.34 2.22 2.32 2.35 2.24 2.09 1.98 1.83 1.73 1.64 1.59 1.61 1.67 1.63 1.47 1.33 1.17 0.98 0.84 0.75 0.66 0.58 0.52 0.49 0.47 0.47 0.47 0.47
2.31 2.50 2.82 2.96 3.31 3.44 3.34 3.35 3.26 3.26 3.32 3.32 3.14 2.87 2.75 2.65 2.47 2.35 2.32 2.31 2.23 2.13 2.04 1.99 1.91 1.85 1.73 1.70 1.70 1.71 1.63 1.58 1.27 0.95 0.86 0.81 0.72 0.69 0.65 0.59 0.58 0.58 0.57
2.06 2.33 2.45 2.61 2.90 3.23 3.35 3.56 3.71 3.72 3.55 3.37 3.23 3.13 2.96 2.91 2.79 2.54 2.42 2.42 2.38 2.26 2.15 2.11 2.09 2.10 2.08 1.99 1.83 1.92 1.82 1.58 1.35 1.13 0.95 0.88 0.83 0.80 0.77 0.72 0.67 0.67 0.65
1.71 2.11 2.41 2.61 2.80 3.02 3.44 3.52 3.47 3.37 3.15 2.93 2.99 3.07 3.08 3.02 2.98 2.77 2.66 2.63 2.54 2.39 2.29 2.32 2.29 2.28 2.32 2.28 2.14 1.93 1.79 1.56 1.47 1.33 1.09 0.95 0.91 0.85 0.82 0.82 0.76 0.69 0.67
1.45 1.83 2.20 2.48 2.83 3.08 3.25 3.36 3.45 3.28 3.04 2.98 2.99 3.00 2.94 2.89 2.91 2.87 2.77 2.83 2.75 2.60 2.48 2.49 2.51 2.50 2.48 2.42 2.30 2.14 2.03 1.82 1.59 1.53 1.34 1.12 1.07 0.98 0.86 0.82 0.80 0.79 0.80
1.34 1.56 1.94 2.23 2.41 2.73 3.06 3.14 3.20 3.21 3.17 3.09 2.92 2.87 2.89 2.88 2.87 2.86 2.85 2.83 2.81 2.78 2.68 2.61 2.56 2.55 2.52 2.46 2.40 2.24 2.16 2.07 1.85 1.77 1.62 1.37 1.32 1.22 1.07 0.98 0.92 0.86 0.86